Regional Weather Roundup
Issued by NWS

Home | Current Version | Previous Version | Graphics & Text | Print | Product List | Glossary On
Versions: 1 2 3 4 5 6 7 8 9 10 11 12 13 14 15 16 17 18 19 20 21 22 23 24 25 26 27 28 29 30 31 32 33 34 35 36 37 38 39 40 41 42 43 44 45 46 47 48 49 50
000
ASUS43 KIND 180509
RWRIN

WEATHER ROUNDUP FOR INDIANA
NATIONAL WEATHER SERVICE INDIANAPOLIS IN
1200 AM EST THU DEC 18 2014

NOTE: "FAIR" INDICATES FEW OR NO CLOUDS BELOW 12,000 FEET WITH NO
SIGNIFICANT WEATHER AND/OR OBSTRUCTIONS TO VISIBILITY.

* - STATION DOES NOT REPORT WEATHER SUCH AS PRECIPITATION OR FOG.

+ - STATION NOT QUALITY CONTROLLED BY THE NATIONAL WEATHER SERVICE.
    USE DATA WITH CAUTION...ESPECIALLY DEWPOINT AND RELATIVE
    HUMIDITY OBSERVATIONS.

INZ001>003-010>013-019-020-180600-
NORTHWEST INDIANA

CITY           SKY/WX    TMP DP  RH WIND       PRES   REMARKS
GARY /AIRPORT/ CLOUDY    28  18  68 W3        30.30R
KNOX *+        CLOUDY    26  20  76 W7        30.26S WCI  19
LA PORTE +     CLOUDY    28  21  75 W8        30.27R WCI  20
MICHIGAN CITY+ CLOUDY    28  18  64 W7        30.27S WCI  21
MONTICELLO +   CLOUDY    26  19  76 W6        30.28R WCI  19
RENSSELAER +   CLOUDY    28  23  80 W7        30.29R WCI  21
VALPARAISO     CLOUDY    25  17  72 W8        30.28R WCI  16

$$

LMZ046-743>745-180600-
SOUTHERN LAKE MICHIGAN

STATION/POSITION TIME  TEMP WIND        PRES
                       AIR  DIR/SP/G
                 (UTC) (F)  (DEG/KT/KT) (MB)

$$

INZ004-005-014>016-021>024-180600-
NORTH CENTRAL INDIANA

CITY           SKY/WX    TMP DP  RH WIND       PRES   REMARKS
GOSHEN         CLOUDY    27  21  78 W12       30.24R WCI  17
LOGANSPORT +   CLOUDY    27  19  74 W5        30.29R WCI  21
PERU/GRISSOM   CLOUDY    26  22  85 W7        30.26S WCI  18
ROCHESTER +    CLOUDY    30  23  74 W6        30.27S WCI  24
SOUTH BEND     NOT AVBL
WARSAW +       CLOUDY    27  21  80 W8        30.24F WCI  18

$$

INZ006>009-017-018-025>027-180600-
NORTHEAST INDIANA

CITY           SKY/WX    TMP DP  RH WIND       PRES   REMARKS
ANGOLA *+      CLOUDY    27  19  74 W7        30.21R WCI  19
AUBURN +       CLOUDY    28  21  74 W6        30.23S WCI  22
FORT WAYNE     CLOUDY    27  21  78 W9        30.25R WCI  18
HUNTINGTON +   CLOUDY    26  20  80 W8        30.25S WCI  17

$$

INZ028-029-035-036-043>045-051>053-180600-
WEST CENTRAL INDIANA

CITY           SKY/WX    TMP DP  RH WIND       PRES   REMARKS
CRAWFORDSVL +  CLOUDY    23  16  74 W5        30.29  WCI  17
GREENCASTLE +  CLOUDY    25  18  74 NW3       30.30R
LAFAYETTE      CLOUDY    25  18  74 NW8       30.30R WCI  16
TERRE HAUTE    CLOUDY    25  18  74 N7        30.32S WCI  17

$$

INZ030>032-037>040-046>048-054>057-064-065-180600-
CENTRAL INDIANA

CITY           SKY/WX    TMP DP  RH WIND       PRES   REMARKS
CP ATTERBURY + CLOUDY    27  21  80 MISG      30.30S
FRANKFORT +    CLOUDY    26  20  79 W7        30.29R WCI  18
GREENWOOD *+   CLOUDY    25  18  74 NW7       30.29  WCI  17
INDIANAPOLIS   CLOUDY    24  17  74 W3        30.29R
-EAGLE CREEK   CLOUDY    25  18  74 NW6       30.29R WCI  18
KOKOMO *+      CLOUDY    27  18  69 NW8       30.27S WCI  18
MARION +       CLOUDY    26  21  82 W7        30.27S WCI  18
MT COMFORT *+  CLOUDY    25  16  68 NW5       30.28R WCI  19
SHELBYVILLE    CLOUDY    26  20  77 N3        30.28S
ZIONSVILLE +   CLOUDY    26  18  72 NW6       30.28R WCI  19

$$

INZ033-034-041-042-049-050-058-059-180600-
EAST CENTRAL INDIANA

CITY           SKY/WX    TMP DP  RH WIND       PRES   REMARKS
MUNCIE         CLOUDY    26  18  71 NW9       30.26S WCI  17

$$

INZ060-061-067>069-081>083-085>088-180600-
SOUTHWEST INDIANA

CITY           SKY/WX    TMP DP  RH WIND       PRES   REMARKS
EVANSVILLE     CLOUDY    31  25  78 N6        30.31R WCI  25
HUNTINGBURG *+ CLOUDY    28  21  74 NE6       30.29F WCI  22
WASHINGTON +   CLOUDY    28  21  75 N10       30.30S WCI  18

$$

INZ062-063-066-070>080-084-089>092-180600-
SOUTH CENTRAL AND SOUTHEAST INDIANA

CITY           SKY/WX    TMP DP  RH WIND       PRES   REMARKS
BLOOMINGTON    CLOUDY    25  20  81 N7        30.28F WCI  17
NORTH VERNON + CLOUDY    27  23  86 N7        30.30  WCI  19

$$



USA.gov is the U.S. government's official web portal to all federal, state and local government web resources and services.